Wind_Speed
44 44 44 44 44 44 44 42 42 37 35 32 33 35 36 35 34 33 32 32 32 32 33 33 33 33 34 34 34 35 36 37 38 38 39 39 40 41 42 43 43 44 45 46
44 44 46 46 44 44 43 43 42 40 37 32 34 36 37 36 35 34 33 33 33 33 33 33 33 34 34 35 36 36 37 38 39 39 40 40 41 42 42 43 43 44 45 46
44 45 47 47 43 43 43 42 42 41 36 35 36 37 38 37 37 35 34 34 34 35 35 34 34 34 35 36 37 38 38 39 40 40 40 41 41 42 43 43 44 45 46 47
44 46 49 44 43 42 41 40 40 40 37 37 38 38 39 38 37 36 35 35 35 35 36 35 35 35 36 37 38 39 39 40 40 40 41 42 42 43 44 44 45 46 47 48
44 46 47 44 42 41 41 39 37 39 38 38 38 39 38 38 38 36 36 35 36 36 36 36 36 37 38 38 39 39 40 40 41 41 42 43 43 44 45 46 47 48 48 49
45 45 45 40 40 40 41 39 35 38 38 38 39 39 36 37 37 37 37 36 36 36 36 36 37 37 38 39 39 40 40 41 42 42 43 44 45 45 46 47 48 48 49 50
44 43 42 38 38 39 40 35 34 35 37 38 38 37 36 37 37 37 37 37 37 37 36 36 37 38 39 39 40 40 41 42 42 43 45 45 46 47 47 48 49 49 50 51
45 44 39 36 38 38 36 36 36 35 36 37 37 37 37 37 37 37 37 37 37 37 37 37 38 38 39 40 41 41 42 43 44 45 46 46 47 48 49 49 50 51 52 53
47 44 39 38 38 36 36 37 37 35 36 37 37 37 37 37 37 37 37 37 37 37 38 38 38 39 40 41 41 42 43 44 45 46 47 47 48 49 49 50 51 52 53 54
47 45 43 40 39 38 38 38 38 37 36 37 37 37 37 37 38 38 38 38 38 38 38 38 39 40 41 42 43 44 44 45 46 47 47 48 49 50 50 51 52 53 54 55
47 43 43 41 40 38 38 38 38 38 38 37 37 37 37 38 38 38 38 39 39 39 39 39 40 41 42 43 44 44 45 46 47 48 48 49 50 51 52 53 54 55 56 57
45 42 43 42 41 41 40 39 38 39 39 38 37 37 38 39 39 39 39 39 39 40 40 40 41 42 43 44 45 45 46 47 48 48 49 50 51 52 53 54 55 56 58 59
43 44 45 43 43 43 42 41 41 41 41 39 38 38 39 40 40 40 39 40 40 41 42 42 43 43 44 44 45 46 47 48 49 50 51 51 52 53 54 55 56 57 58 59
43 44 45 44 43 43 43 43 43 43 42 41 40 40 40 41 40 40 40 40 41 42 43 43 43 44 44 45 46 47 48 49 50 51 52 52 53 54 55 56 57 58 58 59
41 43 43 42 42 43 43 43 43 43 43 43 42 42 41 41 41 41 41 42 42 43 43 43 44 44 45 46 47 48 49 50 51 52 52 53 54 55 56 57 58 58 58 58
41 43 43 41 41 42 42 43 43 43 43 44 43 42 42 42 42 42 42 42 42 43 43 44 44 45 46 47 48 49 50 51 51 52 53 54 55 56 57 58 58 57 58 59
41 43 42 42 41 42 42 43 43 42 43 43 42 42 42 42 42 42 43 43 44 44 44 44 45 46 47 48 49 50 51 51 52 53 54 55 56 57 57 57 57 58 59 60
42 42 42 42 41 41 41 41 42 42 42 42 42 41 41 41 42 42 43 44 44 44 45 45 46 47 48 49 49 50 51 52 52 54 55 56 56 57 57 57 58 59 60 60
40 40 40 39 39 39 39 40 41 41 42 41 41 40 40 41 41 42 42 43 44 44 45 46 47 48 49 49 50 51 52 52 53 54 56 56 57 57 57 58 59 59 60 60
39 38 38 38 38 39 39 40 41 41 41 41 41 41 41 40 40 41 41 43 44 45 46 47 48 49 49 50 50 51 52 53 54 55 56 56 57 57 57 58 58 59 59 59
36 36 36 37 38 39 39 39 40 40 41 41 41 41 41 41 41 42 42 43 44 46 47 48 49 49 49 50 51 52 53 54 55 55 56 56 56 57 57 57 58 58 58 58
34 35 35 36 37 38 38 38 38 39 39 40 40 41 41 42 42 43 44 45 46 47 48 48 48 49 50 51 52 52 53 54 54 55 55 56 56 56 56 57 56 56 56 55
33 33 34 35 36 37 37 37 38 38 39 39 40 40 41 41 42 44 45 46 47 47 47 47 48 48 50 50 51 52 53 54 55 55 55 55 56 55 55 55 55 55 54 52
33 33 33 34 35 36 36 36 37 38 39 40 40 41 41 41 42 44 44 45 46 46 47 47 48 49 50 51 52 53 54 54 54 54 55 55 55 54 54 54 53 52 51 50
34 35 34 34 34 34 35 36 37 39 40 40 40 40 40 41 42 42 43 44 45 46 46 47 49 50 51 52 53 53 53 53 53 53 53 53 53 52 52 52 51 49 48 48
34 34 35 35 35 35 36 37 38 38 38 39 40 41 42 42 42 42 43 44 44 45 47 48 49 50 50 51 51 52 52 52 52 52 52 51 50 50 50 50 49 48 47 47
32 33 35 35 35 35 36 37 37 37 38 39 40 41 42 42 42 43 43 44 45 46 47 47 48 49 49 50 51 51 51 50 50 49 49 49 49 49 49 48 47 47 47 46
Wind_Direction
237 240 240 239 240 242 246 249 251 253 254 253 256 258 260 263 264 265 267 269 271 272 273 276 279 281 283 285 286 288 289 291 293 293 294 295 296 297 297 297 296 297 297 298
239 240 241 240 240 243 246 249 251 252 252 252 253 257 259 261 263 265 267 268 269 270 272 275 278 280 283 285 287 288 290 292 293 293 294 296 297 298 298 298 298 298 299 299
240 241 241 241 241 245 248 250 251 252 251 251 254 256 259 261 263 265 265 266 267 270 272 274 277 280 283 285 287 289 290 292 293 293 294 296 297 298 299 299 299 299 300 300
242 241 242 242 242 244 247 249 250 252 252 253 255 256 257 260 262 264 264 265 266 268 271 274 277 280 282 285 287 289 290 292 293 294 295 296 297 298 299 299 299 300 300 300
242 243 243 241 242 244 247 248 250 252 252 253 255 256 257 260 261 263 263 264 266 268 270 274 277 280 282 285 287 288 290 291 293 294 295 296 297 298 299 299 300 300 300 301
241 243 243 241 243 244 247 248 249 252 252 253 255 257 258 259 261 262 262 263 265 268 271 274 277 280 282 284 286 288 290 292 293 294 295 296 297 298 299 300 300 301 301 301
241 243 242 241 245 246 248 249 250 253 253 254 257 259 259 259 260 261 262 263 265 268 271 275 277 279 282 284 287 289 290 292 293 294 296 297 298 298 299 300 301 301 302 302
239 241 242 242 244 247 250 250 252 254 255 256 258 259 259 260 261 262 263 265 267 270 272 275 277 280 282 285 287 289 291 292 293 295 296 297 298 299 300 301 301 302 302 303
242 242 241 243 245 248 250 250 252 255 256 256 257 258 260 260 261 263 264 266 268 271 273 276 278 281 283 286 288 289 291 293 294 295 297 298 299 300 300 301 302 302 303 304
241 240 240 242 245 247 249 250 251 253 255 256 258 259 259 260 261 263 265 266 269 272 274 277 279 282 284 286 288 290 291 293 295 296 297 298 299 300 301 301 302 303 303 304
242 241 240 242 245 247 249 250 252 253 254 256 259 259 259 260 263 265 266 269 271 274 276 278 280 282 284 286 288 290 291 293 295 296 297 298 299 301 301 302 303 303 304 305
242 242 244 244 246 247 248 250 252 254 255 257 259 260 259 261 264 266 268 270 272 274 276 278 281 283 285 287 288 290 291 293 295 296 297 298 300 301 301 302 303 304 305 306
241 241 243 245 246 247 249 250 252 254 256 256 258 259 260 262 265 267 269 271 273 275 278 280 281 283 285 287 289 290 292 293 295 296 297 298 300 301 302 303 304 305 306 306
240 241 243 245 246 247 248 250 252 254 256 256 258 258 260 262 265 268 270 272 274 276 279 281 282 283 285 287 289 291 293 294 295 297 297 299 300 301 302 304 305 306 306 306
242 244 245 246 246 248 249 250 250 253 255 256 258 259 261 263 265 268 270 273 275 277 279 280 282 283 285 287 290 292 293 295 296 297 298 300 301 302 303 304 305 306 306 307
244 244 246 247 248 248 249 250 251 252 254 256 258 260 262 264 266 267 270 273 275 277 279 280 282 284 286 288 291 293 294 296 297 298 299 300 302 303 304 304 305 306 307 308
247 247 248 248 249 250 251 251 251 252 254 256 258 260 261 263 265 267 270 273 275 277 279 281 283 285 287 289 291 293 295 296 297 299 300 301 302 303 304 305 305 307 307 308
248 248 248 249 251 251 251 251 251 252 254 255 257 259 261 263 265 268 270 272 275 277 279 282 284 287 289 290 292 293 295 296 298 299 301 302 303 303 304 305 306 307 307 308
246 247 248 248 250 251 251 252 253 253 254 255 258 260 262 264 265 268 271 273 276 277 280 282 285 288 289 291 292 294 295 296 298 299 301 302 303 304 305 305 306 307 308 309
247 248 248 249 250 251 252 253 254 254 254 257 259 261 263 265 267 270 273 275 277 279 281 283 286 288 289 291 293 294 296 297 299 300 301 302 303 304 304 305 306 307 308 309
247 247 248 249 250 250 251 253 252 253 255 258 260 262 263 266 268 271 274 276 278 280 282 284 286 287 289 291 293 295 296 298 299 300 301 302 303 304 304 305 306 307 308 309
246 247 247 249 250 250 251 253 253 254 255 258 261 262 264 267 270 272 274 276 278 281 282 284 285 287 289 291 293 295 297 298 299 301 302 302 303 304 304 306 307 308 309 310
248 249 250 252 252 252 253 254 255 256 257 259 261 264 266 269 271 273 276 278 279 281 282 284 286 288 290 292 294 296 297 299 300 301 302 303 304 304 305 306 308 309 310 310
251 250 251 253 253 252 252 254 257 259 260 262 264 267 269 271 273 275 277 279 280 282 283 285 287 289 291 293 295 297 298 299 300 301 302 303 304 304 306 307 308 309 310 310
251 251 253 254 255 254 255 258 260 262 263 264 266 268 271 273 275 276 278 279 281 283 284 286 288 289 292 294 296 297 299 300 300 301 302 303 304 305 307 308 309 309 310 310
253 253 254 254 255 256 259 261 263 264 265 265 267 269 271 273 275 277 279 281 283 285 286 287 289 291 293 294 296 298 299 300 300 302 302 303 304 306 307 308 309 309 310 310
255 255 255 255 257 260 261 263 264 265 266 267 268 269 271 273 276 278 280 282 284 286 288 289 291 292 294 295 297 298 299 300 300 301 302 303 305 306 307 308 308 309 310 310
Height
5659 5663 5667 5671 5675 5679 5681 5686 5689 5695 5699 5704 5704 5704 5704 5705 5706 5707 5708 5708 5708 5708 5707 5706 5705 5703 5702 5700 5698 5696 5694 5691 5688 5685 5682 5678 5675 5671 5667 5663 5659 5654 5650 5646
5649 5653 5656 5660 5665 5669 5673 5677 5680 5684 5689 5694 5694 5693 5694 5696 5697 5698 5699 5699 5699 5698 5698 5697 5696 5694 5693 5691 5689 5687 5684 5681 5678 5675 5672 5668 5665 5661 5657 5652 5648 5644 5639 5634
5639 5642 5644 5649 5659 5661 5665 5669 5672 5674 5682 5683 5684 5684 5685 5686 5688 5689 5689 5689 5689 5689 5688 5687 5686 5685 5684 5682 5680 5677 5675 5671 5668 5665 5662 5658 5655 5650 5646 5642 5637 5633 5628 5623
5628 5631 5634 5648 5650 5652 5656 5660 5663 5666 5670 5672 5674 5674 5675 5676 5677 5678 5679 5679 5679 5679 5678 5678 5677 5675 5674 5672 5670 5667 5664 5661 5658 5655 5652 5648 5644 5640 5636 5631 5626 5622 5616 5611
5618 5620 5626 5636 5641 5644 5646 5651 5655 5656 5659 5661 5662 5663 5666 5667 5667 5668 5669 5669 5669 5669 5668 5668 5667 5665 5664 5662 5660 5657 5654 5651 5648 5645 5641 5637 5633 5629 5625 5620 5615 5610 5605 5599
5609 5611 5617 5631 5633 5634 5636 5642 5647 5646 5648 5650 5651 5653 5658 5657 5658 5658 5659 5659 5659 5659 5658 5658 5657 5655 5653 5652 5649 5647 5644 5641 5637 5634 5630 5626 5622 5618 5613 5608 5603 5598 5592 5587
5599 5602 5610 5621 5622 5624 5629 5636 5636 5636 5637 5639 5641 5645 5647 5647 5648 5648 5648 5649 5649 5649 5648 5648 5646 5645 5643 5641 5639 5636 5633 5630 5626 5623 5619 5615 5610 5606 5601 5596 5591 5586 5580 5575
5590 5593 5605 5612 5612 5616 5620 5623 5624 5625 5627 5629 5632 5634 5635 5636 5637 5638 5638 5639 5639 5639 5638 5637 5636 5634 5632 5631 5628 5625 5622 5619 5615 5611 5607 5603 5598 5594 5589 5583 5578 5573 5567 5561
5582 5590 5598 5600 5603 5606 5608 5612 5613 5615 5617 5619 5621 5623 5625 5626 5627 5628 5628 5628 5628 5628 5628 5627 5625 5623 5622 5620 5617 5614 5611 5607 5603 5600 5595 5591 5586 5581 5576 5571 5565 5560 5554 5548
5572 5580 5586 5589 5591 5595 5598 5601 5603 5605 5607 5609 5611 5613 5615 5616 5617 5617 5617 5618 5618 5618 5617 5616 5614 5612 5610 5608 5605 5602 5599 5595 5592 5588 5583 5578 5573 5568 5563 5557 5552 5546 5540 5534
5561 5569 5573 5577 5581 5585 5588 5590 5592 5595 5597 5599 5600 5602 5604 5605 5606 5607 5607 5607 5607 5607 5606 5605 5603 5601 5599 5596 5593 5590 5587 5583 5579 5575 5570 5566 5561 5555 5549 5544 5538 5532 5526 5519
5553 5561 5562 5567 5571 5573 5576 5579 5581 5584 5586 5588 5590 5592 5593 5594 5595 5596 5596 5597 5596 5596 5595 5594 5592 5590 5587 5584 5581 5578 5575 5571 5567 5562 5558 5553 5548 5542 5536 5530 5524 5517 5510 5503
5543 5547 5549 5554 5558 5562 5565 5568 5570 5573 5575 5578 5579 5580 5582 5583 5584 5585 5585 5585 5585 5584 5583 5582 5580 5577 5575 5572 5569 5566 5562 5558 5554 5549 5544 5539 5534 5529 5523 5517 5510 5503 5496 5488
5531 5534 5538 5544 5548 5550 5553 5556 5559 5561 5564 5567 5568 5569 5571 5572 5573 5573 5574 5573 5573 5572 5571 5569 5567 5565 5562 5559 5556 5553 5549 5545 5540 5536 5531 5526 5520 5515 5509 5503 5497 5489 5481 5473
5521 5524 5528 5532 5535 5538 5541 5544 5547 5550 5553 5555 5557 5558 5559 5560 5561 5562 5561 5561 5560 5559 5558 5557 5555 5552 5550 5547 5543 5540 5536 5531 5527 5522 5517 5512 5506 5500 5494 5488 5481 5475 5468 5460
5510 5512 5516 5520 5524 5527 5530 5532 5535 5539 5541 5543 5545 5547 5548 5548 5549 5549 5549 5549 5548 5547 5546 5544 5542 5539 5536 5533 5530 5526 5522 5517 5513 5508 5503 5497 5492 5486 5479 5473 5466 5460 5453 5445
5498 5502 5506 5509 5513 5515 5518 5521 5524 5527 5529 5531 5533 5534 5535 5536 5536 5537 5537 5536 5535 5534 5533 5531 5529 5526 5523 5520 5516 5512 5508 5504 5499 5494 5489 5483 5477 5471 5465 5458 5452 5445 5438 5430
5487 5491 5494 5497 5500 5503 5506 5509 5512 5514 5517 5519 5521 5522 5523 5524 5524 5525 5524 5524 5523 5521 5520 5518 5515 5513 5510 5506 5503 5499 5494 5490 5485 5480 5474 5469 5462 5456 5450 5443 5437 5430 5423 5415
5476 5479 5483 5486 5489 5492 5495 5498 5500 5502 5505 5507 5508 5510 5511 5511 5512 5512 5512 5511 5510 5508 5507 5504 5502 5499 5496 5492 5489 5484 5480 5476 5471 5465 5460 5454 5448 5441 5435 5429 5422 5415 5407 5400
5465 5468 5472 5475 5477 5480 5483 5486 5488 5490 5493 5495 5496 5497 5498 5499 5499 5499 5499 5498 5497 5495 5493 5491 5488 5485 5482 5478 5474 5470 5466 5461 5456 5451 5445 5439 5433 5427 5420 5414 5407 5400 5392 5385
5454 5458 5461 5464 5467 5469 5471 5474 5476 5478 5480 5482 5484 5485 5486 5487 5487 5487 5486 5485 5483 5481 5479 5477 5474 5471 5468 5464 5460 5456 5451 5446 5441 5436 5430 5424 5418 5412 5406 5399 5392 5385 5377 5370
5444 5447 5450 5453 5456 5458 5460 5462 5464 5466 5468 5470 5472 5473 5474 5474 5474 5473 5472 5471 5470 5468 5465 5463 5460 5457 5454 5450 5446 5441 5437 5432 5426 5421 5415 5409 5403 5397 5391 5384 5377 5370 5363 5355
5434 5437 5440 5442 5445 5447 5449 5451 5453 5455 5457 5458 5459 5460 5461 5461 5461 5460 5459 5457 5455 5454 5451 5448 5445 5442 5439 5435 5431 5427 5422 5417 5412 5406 5400 5395 5389 5382 5376 5370 5363 5356 5349 5342
5425 5427 5429 5432 5434 5436 5438 5440 5441 5443 5445 5446 5447 5448 5448 5448 5447 5446 5445 5444 5442 5440 5437 5434 5432 5428 5425 5421 5417 5412 5407 5402 5397 5391 5386 5380 5374 5368 5362 5356 5349 5342 5336 5329
5415 5417 5419 5421 5423 5425 5427 5429 5430 5431 5433 5434 5434 5435 5435 5434 5434 5433 5431 5430 5428 5426 5423 5421 5417 5414 5410 5406 5402 5398 5393 5387 5382 5377 5371 5366 5360 5354 5348 5342 5335 5329 5323 5317
5404 5407 5409 5411 5412 5414 5416 5417 5418 5420 5420 5421 5422 5422 5422 5421 5420 5419 5418 5416 5414 5412 5409 5406 5403 5400 5396 5392 5387 5383 5378 5373 5368 5362 5357 5351 5346 5340 5335 5329 5323 5317 5311 5305
5394 5396 5398 5400 5401 5403 5404 5406 5407 5408 5408 5409 5409 5409 5408 5408 5407 5406 5404 5402 5400 5398 5395 5392 5389 5385 5382 5378 5373 5369 5364 5359 5354 5349 5343 5338 5333 5327 5322 5316 5310 5304 5299 5293